Hourly Data Report for September 05, 2017

All times are specified in Local Standard Time (LST). Add 1 hour to adjust for Daylight Saving Time where and when it is observed.

HALL BEACH A
NUNAVUT

68°46'33.000" N
81°14'33.000" W
9.10 m
2402354
71293
YUX

Download Data

Hourly Data (September 2017)
Hourly Data Report for September 5, 2017
Temp Definition
°C
Dew Point Temp Definition
°C
Rel Hum Definition
%
Wind Dir Definition
10's deg

Wind Spd Definition
km/h
Visibility Definition
km
Stn Press Definition
kPa
Hmdx Definition


Wind Chill Definition


Weather Definition


TIME
00:00 Legend Double Dagger 2.2 0.9 91 31 21 16.1 101.20     LegendNANA
01:00 Legend Double Dagger 2.0 0.8 92 32 22 16.1 101.18     LegendNANA
02:00 Legend Double Dagger 0.9 -0.1 93 32 22 16.1 101.18     LegendNANA
03:00 Legend Double Dagger 0.5 -0.2 95 31 22 16.1 101.17     LegendNANA
04:00 Legend Double Dagger 0.4 -0.2 96 31 18 16.1 101.17     LegendNANA
05:00 Legend Double Dagger 0.3 -0.4 95 31 18 16.1 101.17     LegendNANA
06:00 Legend Double Dagger 0.6 -0.3 94 32 18 16.1 101.16     LegendNANA
07:00 Legend Double Dagger 1.5 0.3 92 33 18 16.1 101.15     LegendNANA
08:00 Legend Double Dagger 2.0 0.7 91 33 18 16.1 101.15     LegendNANA
09:00 Legend Double Dagger 2.5 0.5 86 34 28 16.1 101.12     LegendNANA
10:00 Legend Double Dagger 2.7 -0.2 81 36 22 16.1 101.12     LegendNANA
11:00 Legend Double Dagger 2.6 -1.7 73 36 22 16.1 101.11     LegendNANA
12:00 Legend Double Dagger 2.6 -2.4 70 36 30 16.1 101.12     LegendNANA
13:00 Legend Double Dagger 2.2 -2.6 71 36 35 16.1 101.17     LegendNANA
14:00 Legend Double Dagger 2.9 -2.3 69 36 24 16.1 101.17     LegendNANA
15:00 Legend Double Dagger 2.8 -2.4 69 36 22 16.1 101.16     LegendNANA
16:00 Legend Double Dagger 3.0 -1.9 70 36 21 16.1 101.18     LegendNANA
17:00 Legend Double Dagger 3.1 -1.7 71 36 26 16.1 101.20     LegendNANA
18:00 Legend Double Dagger 2.7 -1.8 72 34 26 16.1 101.21     LegendNANA
19:00 Legend Double Dagger 1.9 -1.9 76 34 28 16.1 101.21     LegendNANA
20:00 Legend Double Dagger 1.2 -2.2 78 34 26 16.1 101.24     LegendNANA
21:00 Legend Double Dagger 0.6 -2.1 82 34 26 16.1 101.26     LegendNANA
22:00 Legend Double Dagger 0.1 -2.5 83 34 24 16.1 101.26     LegendNANA
23:00 Legend Double Dagger -0.2 -2.4 85 33 22 16.1 101.26   -6 LegendNANA

Notes on Data Quality.

Legend

  • E = Estimated
  • M = Missing
  • NA = Not Available
  • ‡ = Partner data that is not subject to review by the National Climate Archives
Date modified: